User: anonymous
Location: Deer Lake
(49.1830°N, 57.4330°W)
Time: 10:39:29
(UTC-02:-30)
Language:

Cosmos 1707 - Orbit

View from above orbital plane
View from above orbital plane
View from above satellite
View from above satellite

Ground track
Ground track

The orbit data is extracted from the following two-line orbital elements,

1 16326U 85113A   14210.04547410  .00001983  00000-0  12524-3 0  9661
2 16326 082.5163 161.1723 0012980 336.5986 023.4650 15.08482258558096
Epoch (UTC): 29 July 2014 01:05:28
Eccentricity: 0.0012980
inclination: 82.5163°
perigee height: 532 km
apogee height: 550 km
right ascension of ascending node: 161.1723°
argument of perigee: 336.5986°
revolutions per day: 15.08482258
mean anomaly at epoch: 23.4650°
orbit number at epoch: 55809

The dashed part of the orbit path shows where the satellite is in the earth's shadow,  

DLR